When you browse on this site, cookies collect data to enhance your experience and personalize the content and advertising you see.
Visit our Privacy Policy to learn more. By continuing to use the site, you agree to this use of cookies and data.
EN

Hourly Weather Giumri

Today, 8 August, Saturday

Time Temperature Precipitation Wind Pressure Humidity
00:00 +15°C° 0 mm 2 mps 635 mmHg 64%
01:00 +14°C° 0 mm 2 mps 635 mmHg 64%
02:00 +14°C° 0 mm 2 mps 634 mmHg 65%
03:00 +14°C° 0 mm 2 mps 634 mmHg 65%
04:00 +14°C° 0 mm 2 mps 634 mmHg 65%
05:00 +14°C° 0 mm 2 mps 634 mmHg 66%
06:00 +14°C° 0 mm 1 mps 634 mmHg 66%
07:00 +16°C° 0 mm 1 mps 635 mmHg 60%
08:00 +18°C° 0 mm 2 mps 635 mmHg 53%
09:00 +21°C° 0 mm 2 mps 636 mmHg 46%
10:00 +23°C° 0 mm 2 mps 636 mmHg 44%
11:00 +24°C° 0 mm 2 mps 636 mmHg 41%
12:00 +25°C° 0 mm 2 mps 636 mmHg 38%
13:00 +26°C° 0 mm 3 mps 635 mmHg 39%
14:00 +26°C° 0 mm 3 mps 635 mmHg 39%
15:00 +27°C° 0 mm 3 mps 635 mmHg 39%
16:00 +26°C° 0 mm 3 mps 634 mmHg 44%
17:00 +25°C° 0 mm 3 mps 634 mmHg 49%
18:00 +24°C° 0 mm 3 mps 633 mmHg 54%
19:00 +21°C° 0 mm 3 mps 633 mmHg 60%
20:00 +19°C° 0 mm 3 mps 633 mmHg 66%
21:00 +17°C° 0 mm 2 mps 633 mmHg 72%
22:00 +17°C° 0 mm 2 mps 633 mmHg 72%
23:00 +17°C° 0 mm 2 mps 632 mmHg 72%

Tomorrow, 9 August, Sunday

Time Temperature Precipitation Wind Pressure Humidity
00:00 +16°C° 0 mm 2 mps 632 mmHg 72%
01:00 +16°C° 0 mm 2 mps 632 mmHg 71%
02:00 +15°C° 0 mm 2 mps 632 mmHg 70%
03:00 +15°C° 0 mm 2 mps 632 mmHg 70%
04:00 +15°C° 0 mm 2 mps 632 mmHg 70%
05:00 +15°C° 0 mm 1 mps 632 mmHg 70%
06:00 +15°C° 0 mm 1 mps 632 mmHg 71%
07:00 +18°C° 0 mm 1 mps 632 mmHg 65%
08:00 +20°C° 0 mm 2 mps 633 mmHg 59%
09:00 +23°C° 0 mm 2 mps 633 mmHg 53%
10:00 +24°C° 0 mm 2 mps 633 mmHg 49%
11:00 +26°C° 0 mm 2 mps 633 mmHg 45%
12:00 +27°C° 0 mm 2 mps 634 mmHg 41%
13:00 +27°C° 0.1 mm 2 mps 633 mmHg 40%
14:00 +28°C° 0.1 mm 2 mps 633 mmHg 39%
15:00 +28°C° 0.1 mm 2 mps 633 mmHg 37%
16:00 +28°C° 0.1 mm 2 mps 633 mmHg 43%
17:00 +27°C° 0.1 mm 3 mps 632 mmHg 48%
18:00 +26°C° 0.1 mm 3 mps 632 mmHg 54%
19:00 +24°C° 0 mm 3 mps 632 mmHg 59%
20:00 +21°C° 0 mm 3 mps 631 mmHg 64%
21:00 +19°C° 0 mm 2 mps 631 mmHg 69%
22:00 +19°C° 0 mm 2 mps 631 mmHg 69%
23:00 +18°C° 0 mm 2 mps 631 mmHg 69%

Day after tomorrow, 10 August, Monday

Time Temperature Precipitation Wind Pressure Humidity
00:00 +18°C° 0 mm 2 mps 631 mmHg 68%
01:00 +18°C° 0 mm 2 mps 631 mmHg 68%
02:00 +17°C° 0 mm 2 mps 631 mmHg 68%
03:00 +17°C° 0 mm 2 mps 631 mmHg 68%
04:00 +17°C° 0 mm 2 mps 631 mmHg 68%
05:00 +17°C° 0 mm 2 mps 631 mmHg 69%
06:00 +17°C° 0 mm 2 mps 631 mmHg 70%
07:00 +19°C° 0 mm 2 mps 632 mmHg 64%
08:00 +21°C° 0 mm 2 mps 632 mmHg 57%
09:00 +24°C° 0 mm 2 mps 633 mmHg 51%
10:00 +25°C° 0 mm 3 mps 633 mmHg 48%
11:00 +27°C° 0 mm 3 mps 633 mmHg 46%
12:00 +28°C° 0 mm 3 mps 633 mmHg 43%
13:00 +28°C° 0.1 mm 3 mps 633 mmHg 42%
14:00 +29°C° 0.1 mm 3 mps 633 mmHg 41%
15:00 +29°C° 0.1 mm 3 mps 633 mmHg 40%
16:00 +28°C° 0 mm 4 mps 632 mmHg 46%
17:00 +27°C° 0 mm 4 mps 632 mmHg 53%
18:00 +25°C° 0 mm 4 mps 632 mmHg 59%
19:00 +22°C° 0 mm 4 mps 632 mmHg 63%
20:00 +21°C° 0 mm 4 mps 632 mmHg 68%
21:00 +19°C° 0 mm 4 mps 632 mmHg 72%
22:00 +18°C° 0 mm 3 mps 632 mmHg 73%
23:00 +18°C° 0 mm 3 mps 632 mmHg 73%

11 August, Tuesday

Time Temperature Precipitation Wind Pressure Humidity
00:00 +17°C° 0 mm 3 mps 632 mmHg 74%
01:00 +17°C° 0 mm 3 mps 632 mmHg 75%
02:00 +16°C° 0 mm 3 mps 632 mmHg 76%
03:00 +16°C° 0 mm 3 mps 632 mmHg 77%
04:00 +16°C° 0 mm 2 mps 632 mmHg 77%
05:00 +16°C° 0 mm 2 mps 632 mmHg 77%
06:00 +15°C° 0 mm 2 mps 632 mmHg 77%
07:00 +18°C° 0 mm 2 mps 632 mmHg 69%
08:00 +20°C° 0 mm 2 mps 633 mmHg 62%
09:00 +23°C° 0 mm 2 mps 634 mmHg 54%
10:00 +24°C° 0 mm 2 mps 634 mmHg 51%
11:00 +26°C° 0 mm 2 mps 634 mmHg 47%
12:00 +27°C° 0 mm 2 mps 634 mmHg 44%
13:00 +27°C° 0.1 mm 3 mps 634 mmHg 43%
14:00 +28°C° 0.1 mm 3 mps 634 mmHg 43%
15:00 +28°C° 0.1 mm 3 mps 634 mmHg 43%
16:00 +27°C° 0.3 mm 3 mps 633 mmHg 48%
17:00 +26°C° 0.3 mm 3 mps 633 mmHg 53%
18:00 +24°C° 0.3 mm 3 mps 633 mmHg 59%
19:00 +22°C° 0.1 mm 3 mps 633 mmHg 64%
20:00 +20°C° 0.1 mm 3 mps 633 mmHg 69%
21:00 +18°C° 0.1 mm 3 mps 633 mmHg 74%
22:00 +18°C° 0.2 mm 3 mps 633 mmHg 75%
23:00 +18°C° 0.2 mm 3 mps 633 mmHg 76%

12 August, Wednesday

Time Temperature Precipitation Wind Pressure Humidity
00:00 +18°C° 0.2 mm 3 mps 633 mmHg 77%
01:00 +17°C° 0 mm 3 mps 633 mmHg 78%
02:00 +17°C° 0 mm 2 mps 633 mmHg 78%
03:00 +17°C° 0 mm 2 mps 633 mmHg 79%
04:00 +17°C° 0 mm 2 mps 633 mmHg 80%
05:00 +16°C° 0 mm 2 mps 633 mmHg 81%
06:00 +16°C° 0 mm 2 mps 633 mmHg 82%
07:00 +18°C° 0 mm 2 mps 633 mmHg 76%
08:00 +20°C° 0 mm 3 mps 634 mmHg 69%
09:00 +22°C° 0 mm 3 mps 634 mmHg 62%
10:00 +24°C° 0 mm 3 mps 634 mmHg 59%
11:00 +25°C° 0 mm 3 mps 634 mmHg 56%
12:00 +26°C° 0 mm 3 mps 634 mmHg 52%
13:00 +26°C° 0.1 mm 4 mps 634 mmHg 53%
14:00 +26°C° 0.1 mm 4 mps 634 mmHg 53%
15:00 +27°C° 0.1 mm 4 mps 633 mmHg 53%
16:00 +26°C° 0.1 mm 4 mps 633 mmHg 57%
17:00 +25°C° 0.1 mm 4 mps 633 mmHg 61%
18:00 +23°C° 0.1 mm 4 mps 633 mmHg 64%
19:00 +21°C° 0 mm 4 mps 633 mmHg 69%
20:00 +20°C° 0 mm 3 mps 633 mmHg 73%
21:00 +18°C° 0 mm 3 mps 633 mmHg 77%
22:00 +18°C° 0 mm 3 mps 633 mmHg 77%
23:00 +18°C° 0 mm 3 mps 633 mmHg 76%

13 August, Thursday

Time Temperature Precipitation Wind Pressure Humidity
00:00 +17°C° 0 mm 3 mps 632 mmHg 76%
01:00 +17°C° 0 mm 3 mps 632 mmHg 76%
02:00 +17°C° 0 mm 3 mps 632 mmHg 77%
03:00 +17°C° 0 mm 3 mps 632 mmHg 78%
04:00 +17°C° 0 mm 2 mps 632 mmHg 79%
05:00 +16°C° 0 mm 2 mps 632 mmHg 81%
06:00 +16°C° 0 mm 2 mps 632 mmHg 82%
07:00 +18°C° 0 mm 2 mps 632 mmHg 74%
08:00 +20°C° 0 mm 2 mps 633 mmHg 67%
09:00 +22°C° 0 mm 3 mps 633 mmHg 59%
10:00 +24°C° 0 mm 3 mps 633 mmHg 57%
11:00 +25°C° 0 mm 3 mps 633 mmHg 55%
12:00 +26°C° 0 mm 3 mps 633 mmHg 52%
13:00 +26°C° 0.1 mm 4 mps 633 mmHg 52%
14:00 +27°C° 0.1 mm 4 mps 632 mmHg 52%
15:00 +27°C° 0.1 mm 4 mps 632 mmHg 52%
16:00 +25°C° 0.6 mm 4 mps 632 mmHg 57%
17:00 +23°C° 0.6 mm 5 mps 631 mmHg 62%
18:00 +21°C° 0.6 mm 5 mps 631 mmHg 67%
19:00 +20°C° 0.2 mm 4 mps 631 mmHg 69%
20:00 +19°C° 0.2 mm 3 mps 632 mmHg 71%
21:00 +18°C° 0.2 mm 3 mps 632 mmHg 74%
22:00 +18°C° 0.1 mm 2 mps 632 mmHg 74%
23:00 +18°C° 0.1 mm 2 mps 632 mmHg 75%
Show more